Tracking 28790 objects as of 19-Apr-2024
HD Live streaming from Space Station
objects crossing your sky now

COSMOS 2251 DEB

Track COSMOS 2251 DEB now!
10-day predictions


NORAD ID: 34722
Int'l Code: 1993-036YQ
Perigee: 744.7 km
Apogee: 994.8 km
Inclination: 73.9 °
Period: 102.2 minutes
Semi major axis: 7240 km
RCS: 0.0098 m2 (small)
Launch date: June 16, 1993
Source: Commonwealth of Independent States (former USSR) (CIS)
Launch site: PLESETSK MISSILE AND SPACE COMPLEX (PKMTR)

Note: This is SATELLITE DEBRIS
Your satellite tracking list
Your tracking list is empty




NASA's NSSDC Master Catalog

Two Line Element Set (TLE):
1 34722U 93036YQ  24109.05909220  .00003184  00000-0  16126-2 0  9996
2 34722  73.8915 329.6803 0172697  13.0669 137.1799 14.09055913777321
Source of the keplerian elements: AFSPC